contact:dominique.lefevre@mio.osupytheas.fr, maurice.libes@osupytheas.fr, didier.mallarino@osupytheas.fr
Project:EMSO http://www.emso-fr.org/EMSO-France
Depth: 2436.0 m
Title:EMSO Ligure Ouest : Data MII capteur CSTAR
DateTime,Latitude,Longitude,Instrument_Serial,Reference_Counts,Signal_Counts,Corrected_Signal_raw_counts,Calculated_Beam_c_inverse_meters,Internal_thermistor_counts
DateTime,Latitude,Longitude,Instrument_Serial,Reference_Counts,Signal_Counts,Corrected_Signal_raw_counts,Calculated_Beam_c_inverse_meters,Internal_thermistor_counts
2023-05-30T00:00:59,42.805,6.029,CST-1368DR,4302,4678,11544,01.209,552
2023-05-30T00:04:01,42.805,6.029,CST-1368DR,4302,4678,11546,01.208,552
2023-05-30T00:07:02,42.805,6.029,CST-1368DR,4302,4679,11547,01.207,552
2023-05-30T00:10:04,42.805,6.029,CST-1368DR,4302,4680,11549,01.207,552
2023-05-30T00:13:05,42.805,6.029,CST-1368DR,4302,4680,11549,01.207,552
2023-05-30T00:16:07,42.805,6.029,CST-1368DR,4302,4679,11546,01.208,552
2023-05-30T00:19:08,42.805,6.029,CST-1368DR,4302,4678,11546,01.208,552
2023-05-30T00:22:10,42.805,6.029,CST-1368DR,4302,4680,11550,01.206,552
2023-05-30T00:25:12,42.805,6.029,CST-1368DR,4302,4679,11548,01.207,552
2023-05-30T00:28:13,42.805,6.029,CST-1368DR,4302,4680,11549,01.207,552
2023-05-30T00:31:15,42.805,6.029,CST-1368DR,4302,4680,11549,01.207,552
2023-05-30T00:34:16,42.805,6.029,CST-1368DR,4302,4679,11547,01.207,552
2023-05-30T00:37:18,42.805,6.029,CST-1368DR,4302,4679,11547,01.207,552
2023-05-30T00:40:20,42.805,6.029,CST-1368DR,4302,4680,11550,01.206,552
2023-05-30T00:43:21,42.805,6.029,CST-1368DR,4302,4680,11549,01.207,552
2023-05-30T00:46:23,42.805,6.029,CST-1368DR,4302,4679,11548,01.207,552
2023-05-30T00:49:24,42.805,6.029,CST-1368DR,4302,4679,11547,01.207,552
2023-05-30T00:52:26,42.805,6.029,CST-1368DR,4302,4679,11547,01.207,552
2023-05-30T00:55:27,42.805,6.029,CST-1368DR,4302,4680,11549,01.207,552
2023-05-30T00:58:29,42.805,6.029,CST-1368DR,4302,4683,11557,01.204,552
2023-05-30T01:01:31,42.805,6.029,CST-1368DR,4302,4680,11549,01.207,552
2023-05-30T01:04:32,42.805,6.029,CST-1368DR,4302,4681,11553,01.205,552
2023-05-30T01:07:34,42.805,6.029,CST-1368DR,4302,4679,11547,01.207,552
2023-05-30T01:10:35,42.805,6.029,CST-1368DR,4302,4678,11546,01.208,552
2023-05-30T01:13:37,42.805,6.029,CST-1368DR,4302,4678,11545,01.208,552
2023-05-30T01:16:38,42.805,6.029,CST-1368DR,4302,4677,11543,01.209,552
2023-05-30T01:19:40,42.805,6.029,CST-1368DR,4302,4678,11544,01.209,552
2023-05-30T01:22:42,42.805,6.029,CST-1368DR,4302,4678,11544,01.209,552
2023-05-30T01:25:43,42.805,6.029,CST-1368DR,4302,4680,11550,01.206,552
2023-05-30T01:28:45,42.805,6.029,CST-1368DR,4302,4679,11547,01.207,552
2023-05-30T01:31:46,42.805,6.029,CST-1368DR,4302,4678,11546,01.208,552
2023-05-30T01:34:48,42.805,6.029,CST-1368DR,4302,4677,11542,01.209,552
2023-05-30T01:37:50,42.805,6.029,CST-1368DR,4302,4679,11546,01.208,552
2023-05-30T01:40:51,42.805,6.029,CST-1368DR,4302,4679,11546,01.208,552
2023-05-30T01:43:53,42.805,6.029,CST-1368DR,4302,4679,11547,01.207,552
2023-05-30T01:46:54,42.805,6.029,CST-1368DR,4302,4679,11547,01.207,552
2023-05-30T01:49:56,42.805,6.029,CST-1368DR,4302,4679,11546,01.208,552
2023-05-30T01:52:57,42.805,6.029,CST-1368DR,4302,4679,11548,01.207,552
2023-05-30T01:55:59,42.805,6.029,CST-1368DR,4302,4678,11544,01.209,552
2023-05-30T01:59:01,42.805,6.029,CST-1368DR,4302,4680,11549,01.207,552
2023-05-30T02:02:02,42.805,6.029,CST-1368DR,4302,4684,11560,01.203,552
2023-05-30T02:05:04,42.805,6.029,CST-1368DR,4302,4682,11555,01.205,552
2023-05-30T02:08:05,42.805,6.029,CST-1368DR,4302,4678,11546,01.208,552
2023-05-30T02:11:07,42.805,6.029,CST-1368DR,4302,4679,11547,01.207,552
2023-05-30T02:14:08,42.805,6.029,CST-1368DR,4302,4679,11546,01.208,552
2023-05-30T02:17:10,42.805,6.029,CST-1368DR,4302,4679,11548,01.207,552
2023-05-30T02:20:12,42.805,6.029,CST-1368DR,4302,4680,11550,01.206,552
2023-05-30T02:23:13,42.805,6.029,CST-1368DR,4302,4679,11547,01.207,552
2023-05-30T02:26:15,42.805,6.029,CST-1368DR,4302,4679,11547,01.207,552
2023-05-30T02:29:16,42.805,6.029,CST-1368DR,4302,4680,11549,01.207,552
2023-05-30T02:32:18,42.805,6.029,CST-1368DR,4302,4679,11546,01.208,552
2023-05-30T02:35:20,42.805,6.029,CST-1368DR,4302,4680,11549,01.207,552
2023-05-30T02:38:21,42.805,6.029,CST-1368DR,4302,4679,11546,01.208,552
2023-05-30T02:41:23,42.805,6.029,CST-1368DR,4302,4680,11549,01.207,552
2023-05-30T02:44:24,42.805,6.029,CST-1368DR,4302,4678,11546,01.208,552
2023-05-30T02:47:26,42.805,6.029,CST-1368DR,4302,4678,11546,01.208,552
2023-05-30T02:50:27,42.805,6.029,CST-1368DR,4302,4679,11547,01.207,552
2023-05-30T02:53:29,42.805,6.029,CST-1368DR,4302,4679,11547,01.207,552
2023-05-30T02:56:31,42.805,6.029,CST-1368DR,4302,4678,11546,01.208,552
2023-05-30T02:59:32,42.805,6.029,CST-1368DR,4302,4679,11548,01.207,552
2023-05-30T03:02:34,42.805,6.029,CST-1368DR,4302,4678,11544,01.209,552
2023-05-30T03:05:35,42.805,6.029,CST-1368DR,4302,4679,11548,01.207,552
2023-05-30T03:08:37,42.805,6.029,CST-1368DR,4302,4678,11545,01.208,552
2023-05-30T03:11:38,42.805,6.029,CST-1368DR,4302,4679,11547,01.207,552
2023-05-30T03:14:40,42.805,6.029,CST-1368DR,4302,4678,11546,01.208,552
2023-05-30T03:17:42,42.805,6.029,CST-1368DR,4302,4679,11547,01.207,552
2023-05-30T03:20:43,42.805,6.029,CST-1368DR,4302,4679,11548,01.207,552
2023-05-30T03:23:45,42.805,6.029,CST-1368DR,4302,4678,11545,01.208,552
2023-05-30T03:26:46,42.805,6.029,CST-1368DR,4302,4680,11549,01.207,552
2023-05-30T03:29:48,42.805,6.029,CST-1368DR,4302,4680,11549,01.207,552
2023-05-30T03:32:50,42.805,6.029,CST-1368DR,4302,4679,11548,01.207,552
2023-05-30T03:35:51,42.805,6.029,CST-1368DR,4302,4680,11549,01.207,552
2023-05-30T03:38:53,42.805,6.029,CST-1368DR,4302,4680,11550,01.206,551
2023-05-30T03:41:54,42.805,6.029,CST-1368DR,4302,4679,11548,01.207,552
2023-05-30T03:44:56,42.805,6.029,CST-1368DR,4302,4679,11548,01.207,552
2023-05-30T03:47:57,42.805,6.029,CST-1368DR,4302,4679,11546,01.208,552
2023-05-30T03:50:59,42.805,6.029,CST-1368DR,4302,4679,11548,01.207,552
2023-05-30T03:54:01,42.805,6.029,CST-1368DR,4302,4678,11544,01.209,552
2023-05-30T03:57:02,42.805,6.029,CST-1368DR,4302,4678,11545,01.208,552
2023-05-30T04:00:04,42.805,6.029,CST-1368DR,4302,4679,11546,01.208,552
2023-05-30T04:03:05,42.805,6.029,CST-1368DR,4302,4681,11552,01.206,552
2023-05-30T04:06:07,42.805,6.029,CST-1368DR,4302,4679,11547,01.207,552
2023-05-30T04:09:08,42.805,6.029,CST-1368DR,4302,4678,11544,01.209,552
2023-05-30T04:12:10,42.805,6.029,CST-1368DR,4302,4680,11550,01.206,552
2023-05-30T04:15:12,42.805,6.029,CST-1368DR,4302,4680,11550,01.206,552
2023-05-30T04:18:13,42.805,6.029,CST-1368DR,4302,4680,11549,01.207,552
2023-05-30T04:21:15,42.805,6.029,CST-1368DR,4302,4679,11548,01.207,552
2023-05-30T04:24:16,42.805,6.029,CST-1368DR,4302,4679,11547,01.207,552
2023-05-30T04:27:18,42.805,6.029,CST-1368DR,4302,4679,11547,01.207,552
2023-05-30T04:30:20,42.805,6.029,CST-1368DR,4302,4680,11549,01.207,552
2023-05-30T04:33:21,42.805,6.029,CST-1368DR,4302,4682,11554,01.205,552
2023-05-30T04:36:23,42.805,6.029,CST-1368DR,4302,4679,11547,01.207,552
2023-05-30T04:39:24,42.805,6.029,CST-1368DR,4302,4678,11546,01.208,552
2023-05-30T04:42:26,42.805,6.029,CST-1368DR,4302,4679,11547,01.207,552
2023-05-30T04:45:27,42.805,6.029,CST-1368DR,4302,4681,11552,01.206,552
2023-05-30T04:48:29,42.805,6.029,CST-1368DR,4302,4679,11547,01.207,552
2023-05-30T04:51:31,42.805,6.029,CST-1368DR,4302,4679,11546,01.208,552
2023-05-30T04:54:32,42.805,6.029,CST-1368DR,4302,4678,11546,01.208,552
2023-05-30T04:57:34,42.805,6.029,CST-1368DR,4302,4680,11550,01.206,552
2023-05-30T05:00:35,42.805,6.029,CST-1368DR,4302,4679,11548,01.207,552
2023-05-30T05:03:37,42.805,6.029,CST-1368DR,4302,4680,11549,01.207,552
2023-05-30T05:06:38,42.805,6.029,CST-1368DR,4302,4678,11545,01.208,552
2023-05-30T05:09:40,42.805,6.029,CST-1368DR,4302,4676,11541,01.210,552
2023-05-30T05:12:42,42.805,6.029,CST-1368DR,4302,4680,11550,01.206,552
2023-05-30T05:15:43,42.805,6.029,CST-1368DR,4302,4710,11623,01.181,552
2023-05-30T05:18:45,42.805,6.029,CST-1368DR,4302,4707,11617,01.183,552
2023-05-30T05:21:46,42.805,6.029,CST-1368DR,4302,4710,11624,01.181,552
2023-05-30T05:24:48,42.805,6.029,CST-1368DR,4302,4709,11620,01.182,552
2023-05-30T05:27:50,42.805,6.029,CST-1368DR,4302,4707,11616,01.184,552
2023-05-30T05:30:51,42.805,6.029,CST-1368DR,4302,4709,11620,01.182,552
2023-05-30T05:33:53,42.805,6.029,CST-1368DR,4302,4706,11615,01.184,552
2023-05-30T05:36:54,42.805,6.029,CST-1368DR,4302,4709,11622,01.182,552
2023-05-30T05:39:56,42.805,6.029,CST-1368DR,4302,4713,11630,01.179,552
2023-05-30T05:42:57,42.805,6.029,CST-1368DR,4302,4712,11628,01.180,552
2023-05-30T05:45:59,42.805,6.029,CST-1368DR,4302,4707,11617,01.183,552
2023-05-30T05:49:01,42.805,6.029,CST-1368DR,4302,4698,11595,01.191,552
2023-05-30T05:52:02,42.805,6.029,CST-1368DR,4302,4703,11607,01.187,552
2023-05-30T05:55:04,42.805,6.029,CST-1368DR,4302,4706,11613,01.185,552
2023-05-30T05:58:05,42.805,6.029,CST-1368DR,4302,4695,11586,01.194,552
2023-05-30T06:01:07,42.805,6.029,CST-1368DR,4302,4708,11620,01.182,552
2023-05-30T06:04:08,42.805,6.029,CST-1368DR,4302,4705,11612,01.185,552
2023-05-30T06:07:10,42.805,6.029,CST-1368DR,4302,4704,11608,01.186,552
2023-05-30T06:10:12,42.805,6.029,CST-1368DR,4302,4704,11608,01.186,552
2023-05-30T06:13:13,42.805,6.029,CST-1368DR,4302,4709,11622,01.182,552
2023-05-30T06:16:15,42.805,6.029,CST-1368DR,4302,4711,11625,01.181,552
2023-05-30T06:19:16,42.805,6.029,CST-1368DR,4302,4703,11606,01.187,552
2023-05-30T06:22:18,42.805,6.029,CST-1368DR,4302,4699,11597,01.190,552
2023-05-30T06:25:19,42.805,6.029,CST-1368DR,4302,4700,11600,01.189,552
2023-05-30T06:28:21,42.805,6.029,CST-1368DR,4302,4700,11600,01.189,552
2023-05-30T06:31:26,42.805,6.029,CST-1368DR,4302,4699,11597,01.190,552
2023-05-30T06:34:27,42.805,6.029,CST-1368DR,4302,4700,11598,01.190,552
2023-05-30T06:37:29,42.805,6.029,CST-1368DR,4302,4699,11595,01.191,552
2023-05-30T06:40:30,42.805,6.029,CST-1368DR,4302,4697,11591,01.192,552
2023-05-30T06:43:32,42.805,6.029,CST-1368DR,4302,4699,11597,01.190,552
2023-05-30T06:46:33,42.805,6.029,CST-1368DR,4302,4697,11591,01.192,552
2023-05-30T06:49:35,42.805,6.029,CST-1368DR,4302,4683,11557,01.204,552
2023-05-30T06:52:37,42.805,6.029,CST-1368DR,4302,4684,11560,01.203,552
2023-05-30T06:55:38,42.805,6.029,CST-1368DR,4302,4685,11563,01.202,552
2023-05-30T06:58:40,42.805,6.029,CST-1368DR,4302,4689,11571,01.199,552
2023-05-30T07:01:41,42.805,6.029,CST-1368DR,4302,4688,11568,01.200,552
2023-05-30T07:04:43,42.805,6.029,CST-1368DR,4302,4687,11567,01.201,552
2023-05-30T07:07:44,42.805,6.029,CST-1368DR,4302,4688,11570,01.200,552
2023-05-30T07:10:46,42.805,6.029,CST-1368DR,4302,4687,11567,01.201,552
2023-05-30T07:13:48,42.805,6.029,CST-1368DR,4302,4686,11565,01.201,552
2023-05-30T07:16:49,42.805,6.029,CST-1368DR,4302,4686,11565,01.201,552
2023-05-30T07:19:51,42.805,6.029,CST-1368DR,4302,4687,11567,01.201,552
2023-05-30T07:22:52,42.805,6.029,CST-1368DR,4302,4686,11565,01.201,552
2023-05-30T07:25:54,42.805,6.029,CST-1368DR,4302,4684,11560,01.203,552
2023-05-30T07:28:56,42.805,6.029,CST-1368DR,4302,4687,11566,01.201,552
2023-05-30T07:31:57,42.805,6.029,CST-1368DR,4302,4688,11568,01.200,552
2023-05-30T07:34:59,42.805,6.029,CST-1368DR,4302,4686,11563,01.202,552
2023-05-30T07:38:00,42.805,6.029,CST-1368DR,4302,4688,11569,01.200,552
2023-05-30T07:41:02,42.805,6.029,CST-1368DR,4302,4687,11567,01.201,552
2023-05-30T07:44:03,42.805,6.029,CST-1368DR,4302,4687,11567,01.201,552
2023-05-30T07:47:05,42.805,6.029,CST-1368DR,4302,4687,11567,01.201,552
2023-05-30T07:50:07,42.805,6.029,CST-1368DR,4302,4685,11563,01.202,552
2023-05-30T07:53:08,42.805,6.029,CST-1368DR,4302,4683,11557,01.204,552
2023-05-30T07:56:10,42.805,6.029,CST-1368DR,4302,4680,11550,01.206,552
2023-05-30T07:59:11,42.805,6.029,CST-1368DR,4302,4677,11541,01.210,552
2023-05-30T08:02:13,42.805,6.029,CST-1368DR,4302,4679,11546,01.208,552
2023-05-30T08:05:14,42.805,6.029,CST-1368DR,4302,4677,11543,01.209,552
2023-05-30T08:08:16,42.805,6.029,CST-1368DR,4302,4677,11542,01.209,552
2023-05-30T08:11:18,42.805,6.029,CST-1368DR,4302,4677,11543,01.209,552
2023-05-30T08:14:19,42.805,6.029,CST-1368DR,4302,4687,11566,01.201,552
2023-05-30T08:17:21,42.805,6.029,CST-1368DR,4302,4685,11561,01.203,552
2023-05-30T08:20:22,42.805,6.029,CST-1368DR,4302,4683,11556,01.204,552
2023-05-30T08:23:24,42.805,6.029,CST-1368DR,4302,4678,11546,01.208,552
2023-05-30T08:26:26,42.805,6.029,CST-1368DR,4302,4676,11541,01.210,552
2023-05-30T08:29:27,42.805,6.029,CST-1368DR,4302,4676,11540,01.210,552
2023-05-30T08:32:29,42.805,6.029,CST-1368DR,4302,4669,11523,01.216,552
2023-05-30T08:35:30,42.805,6.029,CST-1368DR,4302,4673,11532,01.213,552
2023-05-30T08:38:32,42.805,6.029,CST-1368DR,4302,4672,11529,01.214,552
2023-05-30T08:41:33,42.805,6.029,CST-1368DR,4302,4671,11528,01.214,552
2023-05-30T08:44:35,42.805,6.029,CST-1368DR,4302,4670,11525,01.215,552
2023-05-30T08:47:37,42.805,6.029,CST-1368DR,4302,4669,11522,01.216,552
2023-05-30T08:50:38,42.805,6.029,CST-1368DR,4302,4671,11526,01.215,552
2023-05-30T08:53:40,42.805,6.029,CST-1368DR,4302,4667,11517,01.218,552
2023-05-30T08:56:41,42.805,6.029,CST-1368DR,4302,4670,11525,01.215,552
2023-05-30T08:59:43,42.805,6.029,CST-1368DR,4302,4668,11520,01.217,552
2023-05-30T09:02:44,42.805,6.029,CST-1368DR,4302,4666,11515,01.219,552
2023-05-30T09:05:46,42.805,6.029,CST-1368DR,4302,4666,11514,01.219,552
2023-05-30T09:08:48,42.805,6.029,CST-1368DR,4302,4666,11516,01.218,552
2023-05-30T09:11:49,42.805,6.029,CST-1368DR,4302,4665,11512,01.220,552
2023-05-30T09:14:51,42.805,6.029,CST-1368DR,4302,4664,11510,01.220,552
2023-05-30T09:17:52,42.805,6.029,CST-1368DR,4302,4663,11508,01.221,552
2023-05-30T09:20:54,42.805,6.029,CST-1368DR,4302,4667,11517,01.218,552
2023-05-30T09:23:55,42.805,6.029,CST-1368DR,4302,4664,11510,01.220,552
2023-05-30T09:26:57,42.805,6.029,CST-1368DR,4302,4669,11521,01.216,552
2023-05-30T09:29:59,42.805,6.029,CST-1368DR,4302,4666,11515,01.219,552
2023-05-30T09:33:00,42.805,6.029,CST-1368DR,4302,4671,11526,01.215,552
2023-05-30T09:36:02,42.805,6.029,CST-1368DR,4302,4677,11542,01.209,552
2023-05-30T09:39:03,42.805,6.029,CST-1368DR,4302,4676,11539,01.210,552
2023-05-30T09:42:05,42.805,6.029,CST-1368DR,4302,4673,11533,01.212,552
2023-05-30T09:45:07,42.805,6.029,CST-1368DR,4302,4665,11512,01.220,552
2023-05-30T09:48:08,42.805,6.029,CST-1368DR,4302,4661,11504,01.222,552
2023-05-30T09:51:10,42.805,6.029,CST-1368DR,4302,4660,11499,01.224,552
2023-05-30T09:54:11,42.805,6.029,CST-1368DR,4302,4662,11505,01.222,552
2023-05-30T09:57:13,42.805,6.029,CST-1368DR,4302,4660,11500,01.224,552
2023-05-30T10:00:14,42.805,6.029,CST-1368DR,4302,4665,11512,01.220,552
2023-05-30T10:05:07,42.805,6.029,CST-1368DR,4302,4656,11491,01.227,552
2023-05-30T10:08:09,42.805,6.029,CST-1368DR,4302,4661,11502,01.223,552
2023-05-30T10:11:10,42.805,6.029,CST-1368DR,4302,4660,11500,01.224,552
2023-05-30T10:14:12,42.805,6.029,CST-1368DR,4302,4658,11495,01.226,552
2023-05-30T10:17:13,42.805,6.029,CST-1368DR,4302,4657,11494,01.226,552
2023-05-30T10:20:15,42.805,6.029,CST-1368DR,4302,4659,11497,01.225,552
2023-05-30T10:23:16,42.805,6.029,CST-1368DR,4302,4658,11496,01.225,552
2023-05-30T10:26:18,42.805,6.029,CST-1368DR,4302,4658,11494,01.226,552
2023-05-30T10:29:20,42.805,6.029,CST-1368DR,4302,4663,11507,01.221,552
2023-05-30T10:32:21,42.805,6.029,CST-1368DR,4302,4660,11499,01.224,552
2023-05-30T10:35:23,42.805,6.029,CST-1368DR,4302,4659,11497,01.225,552
2023-05-30T10:38:24,42.805,6.029,CST-1368DR,4302,4660,11499,01.224,552
2023-05-30T10:41:26,42.805,6.029,CST-1368DR,4302,4660,11500,01.224,552
2023-05-30T10:44:27,42.805,6.029,CST-1368DR,4302,4657,11492,01.227,552
2023-05-30T10:47:29,42.805,6.029,CST-1368DR,4302,4659,11498,01.224,552
2023-05-30T10:50:30,42.805,6.029,CST-1368DR,4302,4660,11500,01.224,552
2023-05-30T10:53:32,42.805,6.029,CST-1368DR,4302,4658,11494,01.226,552
2023-05-30T10:56:34,42.805,6.029,CST-1368DR,4302,4662,11505,01.222,552
2023-05-30T10:59:35,42.805,6.029,CST-1368DR,4302,4658,11495,01.226,552
2023-05-30T11:02:37,42.805,6.029,CST-1368DR,4302,4660,11500,01.224,552
2023-05-30T11:05:38,42.805,6.029,CST-1368DR,4302,4657,11492,01.227,552
2023-05-30T11:08:40,42.805,6.029,CST-1368DR,4302,4659,11497,01.225,552
2023-05-30T11:11:42,42.805,6.029,CST-1368DR,4302,4659,11499,01.224,552
2023-05-30T11:14:43,42.805,6.029,CST-1368DR,4302,4662,11506,01.222,552
2023-05-30T11:17:45,42.805,6.029,CST-1368DR,4302,4659,11499,01.224,552
2023-05-30T11:20:46,42.805,6.029,CST-1368DR,4302,4658,11495,01.226,552
2023-05-30T11:23:48,42.805,6.029,CST-1368DR,4302,4661,11502,01.223,552
2023-05-30T11:26:49,42.805,6.029,CST-1368DR,4302,4653,11484,01.229,552
2023-05-30T11:29:51,42.805,6.029,CST-1368DR,4301,4656,11494,01.226,552
2023-05-30T11:32:53,42.805,6.029,CST-1368DR,4302,4653,11484,01.229,552
2023-05-30T11:35:54,42.805,6.029,CST-1368DR,4302,4657,11492,01.227,552
2023-05-30T11:38:56,42.805,6.029,CST-1368DR,4302,4658,11496,01.225,552
2023-05-30T11:41:57,42.805,6.029,CST-1368DR,4302,4654,11486,01.229,552
2023-05-30T11:44:59,42.805,6.029,CST-1368DR,4302,4656,11489,01.228,552
2023-05-30T11:48:01,42.805,6.029,CST-1368DR,4302,4655,11488,01.228,552
2023-05-30T11:51:02,42.805,6.029,CST-1368DR,4302,4657,11493,01.226,552
2023-05-30T11:54:04,42.805,6.029,CST-1368DR,4302,4658,11495,01.226,552
2023-05-30T11:57:05,42.805,6.029,CST-1368DR,4302,4682,11554,01.205,552
2023-05-30T12:00:07,42.805,6.029,CST-1368DR,4302,4663,11508,01.221,552
2023-05-30T12:03:08,42.805,6.029,CST-1368DR,4301,4659,11501,01.223,552
2023-05-30T12:06:10,42.805,6.029,CST-1368DR,4302,4658,11496,01.225,552
2023-05-30T12:09:12,42.805,6.029,CST-1368DR,4301,4656,11493,01.226,552
2023-05-30T12:12:13,42.805,6.029,CST-1368DR,4301,4657,11496,01.225,552
2023-05-30T12:15:15,42.805,6.029,CST-1368DR,4301,4658,11497,01.225,552
2023-05-30T12:18:16,42.805,6.029,CST-1368DR,4302,4657,11492,01.227,552
2023-05-30T12:21:18,42.805,6.029,CST-1368DR,4302,4655,11488,01.228,552
2023-05-30T12:24:19,42.805,6.029,CST-1368DR,4302,4655,11489,01.228,552
2023-05-30T12:27:21,42.805,6.029,CST-1368DR,4302,4655,11488,01.228,552
2023-05-30T12:30:24,42.805,6.029,CST-1368DR,4301,4654,11488,01.228,552
2023-05-30T12:33:25,42.805,6.029,CST-1368DR,4302,4656,11491,01.227,552
2023-05-30T12:36:27,42.805,6.029,CST-1368DR,4301,4656,11492,01.227,552
2023-05-30T12:39:28,42.805,6.029,CST-1368DR,4301,4655,11489,01.228,552
2023-05-30T12:42:30,42.805,6.029,CST-1368DR,4302,4654,11486,01.229,552
2023-05-30T12:45:32,42.805,6.029,CST-1368DR,4301,4653,11486,01.229,552
2023-05-30T12:48:33,42.805,6.029,CST-1368DR,4301,4652,11482,01.230,552
2023-05-30T12:51:35,42.805,6.029,CST-1368DR,4302,4654,11486,01.229,552
2023-05-30T13:00:07,42.805,6.029,CST-1368DR,4302,4651,11477,01.232,552
2023-05-30T13:03:09,42.805,6.029,CST-1368DR,4302,4655,11488,01.228,552
2023-05-30T13:06:10,42.805,6.029,CST-1368DR,4302,4656,11491,01.227,552
2023-05-30T13:09:12,42.805,6.029,CST-1368DR,4301,4656,11493,01.226,552
2023-05-30T13:12:13,42.805,6.029,CST-1368DR,4302,4672,11530,01.213,552
2023-05-30T13:15:15,42.805,6.029,CST-1368DR,4302,4664,11510,01.220,552
2023-05-30T13:18:16,42.805,6.029,CST-1368DR,4302,4661,11502,01.223,552
2023-05-30T13:21:18,42.805,6.029,CST-1368DR,4302,4658,11495,01.226,552
2023-05-30T13:24:20,42.805,6.029,CST-1368DR,4302,4658,11495,01.226,552
2023-05-30T13:27:21,42.805,6.029,CST-1368DR,4302,4658,11496,01.225,552
2023-05-30T13:30:23,42.805,6.029,CST-1368DR,4302,4659,11498,01.224,552
2023-05-30T13:33:24,42.805,6.029,CST-1368DR,4302,4653,11484,01.229,552
2023-05-30T13:36:26,42.805,6.029,CST-1368DR,4301,4658,11499,01.224,552
2023-05-30T13:39:28,42.805,6.029,CST-1368DR,4302,4655,11489,01.228,552
2023-05-30T13:42:29,42.805,6.029,CST-1368DR,4302,4653,11484,01.229,552
2023-05-30T13:45:31,42.805,6.029,CST-1368DR,4301,4655,11489,01.228,552
2023-05-30T13:48:32,42.805,6.029,CST-1368DR,4301,4656,11494,01.226,552
2023-05-30T13:51:34,42.805,6.029,CST-1368DR,4302,4663,11509,01.221,552
2023-05-30T13:54:35,42.805,6.029,CST-1368DR,4302,4657,11494,01.226,552
2023-05-30T13:57:37,42.805,6.029,CST-1368DR,4301,4661,11504,01.222,552
2023-05-30T14:00:39,42.805,6.029,CST-1368DR,4301,4658,11499,01.224,552
2023-05-30T14:03:40,42.805,6.029,CST-1368DR,4301,4658,11499,01.224,552
2023-05-30T14:06:42,42.805,6.029,CST-1368DR,4301,4656,11493,01.226,552
2023-05-30T14:09:43,42.805,6.029,CST-1368DR,4301,4659,11501,01.223,552
2023-05-30T14:12:45,42.805,6.029,CST-1368DR,4302,4661,11504,01.222,552
2023-05-30T14:15:46,42.805,6.029,CST-1368DR,4301,4658,11498,01.224,552
2023-05-30T14:18:48,42.805,6.029,CST-1368DR,4301,4657,11496,01.225,552
2023-05-30T14:21:50,42.805,6.029,CST-1368DR,4301,4659,11500,01.224,552
2023-05-30T14:24:51,42.805,6.029,CST-1368DR,4301,4658,11497,01.225,552
2023-05-30T14:27:53,42.805,6.029,CST-1368DR,4302,4658,11495,01.226,552
2023-05-30T14:30:54,42.805,6.029,CST-1368DR,4301,4659,11501,01.223,552
2023-05-30T14:33:56,42.805,6.029,CST-1368DR,4301,4651,11481,01.230,552
2023-05-30T14:36:57,42.805,6.029,CST-1368DR,4301,4657,11494,01.226,552
2023-05-30T14:39:59,42.805,6.029,CST-1368DR,4301,4659,11500,01.224,552
2023-05-30T14:43:01,42.805,6.029,CST-1368DR,4301,4652,11483,01.230,552
2023-05-30T14:46:02,42.805,6.029,CST-1368DR,4302,4659,11497,01.225,552
2023-05-30T14:49:04,42.805,6.029,CST-1368DR,4301,4651,11480,01.231,552
2023-05-30T14:52:05,42.805,6.029,CST-1368DR,4301,4658,11498,01.224,552
2023-05-30T14:55:07,42.805,6.029,CST-1368DR,4301,4660,11502,01.223,552
2023-05-30T14:58:09,42.805,6.029,CST-1368DR,4301,4653,11485,01.229,552
2023-05-30T15:01:10,42.805,6.029,CST-1368DR,4301,4657,11496,01.225,552
2023-05-30T15:04:12,42.805,6.029,CST-1368DR,4301,4658,11497,01.225,552
2023-05-30T15:07:13,42.805,6.029,CST-1368DR,4301,4653,11486,01.229,552
2023-05-30T15:10:15,42.805,6.029,CST-1368DR,4301,4657,11496,01.225,552
2023-05-30T15:13:16,42.805,6.029,CST-1368DR,4301,4657,11496,01.225,552
2023-05-30T15:16:18,42.805,6.029,CST-1368DR,4301,4659,11499,01.224,552
2023-05-30T15:19:20,42.805,6.029,CST-1368DR,4301,4655,11491,01.227,552
2023-05-30T15:22:21,42.805,6.029,CST-1368DR,4302,4664,11511,01.220,552
2023-05-30T15:25:23,42.805,6.029,CST-1368DR,4302,4658,11496,01.225,552
2023-05-30T15:28:24,42.805,6.029,CST-1368DR,4302,4659,11498,01.224,552
2023-05-30T15:31:26,42.805,6.029,CST-1368DR,4301,4659,11501,01.223,552
2023-05-30T15:34:28,42.805,6.029,CST-1368DR,4301,4658,11497,01.225,552
2023-05-30T15:37:29,42.805,6.029,CST-1368DR,4301,4658,11498,01.224,552
2023-05-30T15:40:31,42.805,6.029,CST-1368DR,4301,4657,11494,01.226,552
2023-05-30T15:43:32,42.805,6.029,CST-1368DR,4301,4659,11500,01.224,552
2023-05-30T15:46:34,42.805,6.029,CST-1368DR,4301,4656,11493,01.226,552
2023-05-30T15:49:35,42.805,6.029,CST-1368DR,4301,4656,11493,01.226,552
2023-05-30T15:52:37,42.805,6.029,CST-1368DR,4301,4658,11498,01.224,552
2023-05-30T15:55:39,42.805,6.029,CST-1368DR,4301,4660,11502,01.223,552
2023-05-30T15:58:40,42.805,6.029,CST-1368DR,4301,4660,11502,01.223,552
2023-05-30T16:01:42,42.805,6.029,CST-1368DR,4301,4659,11499,01.224,552
2023-05-30T16:04:43,42.805,6.029,CST-1368DR,4301,4659,11500,01.224,552
2023-05-30T16:07:45,42.805,6.029,CST-1368DR,4301,4656,11494,01.226,552
2023-05-30T16:10:46,42.805,6.029,CST-1368DR,4301,4665,11514,01.219,552
2023-05-30T16:13:48,42.805,6.029,CST-1368DR,4302,4674,11536,01.211,552
2023-05-30T16:16:50,42.805,6.029,CST-1368DR,4302,4676,11539,01.210,552
2023-05-30T16:19:51,42.805,6.029,CST-1368DR,4302,4677,11541,01.210,552
2023-05-30T16:22:53,42.805,6.029,CST-1368DR,4302,4676,11539,01.210,552
2023-05-30T16:25:54,42.805,6.029,CST-1368DR,4302,4675,11538,01.211,552
2023-05-30T16:28:56,42.805,6.029,CST-1368DR,4302,4676,11539,01.210,552
2023-05-30T16:31:57,42.805,6.029,CST-1368DR,4302,4675,11538,01.211,552
2023-05-30T16:34:59,42.805,6.029,CST-1368DR,4301,4676,11543,01.209,552
2023-05-30T16:38:00,42.805,6.029,CST-1368DR,4302,4676,11541,01.210,552
2023-05-30T16:41:02,42.805,6.029,CST-1368DR,4302,4674,11536,01.211,552
2023-05-30T16:44:03,42.805,6.029,CST-1368DR,4302,4674,11536,01.211,552